Previsão horária em Abbakumovo

Hoje, 17 Maio, Segunda-feira

Tempo Temperatura Precipitação Vento Pressão Humidade
00:00 +13°C° 0 mm 1 m/s 739 mmHg 87%
01:00 +13°C° 0 mm 2 m/s 739 mmHg 88%
02:00 +13°C° 0 mm 2 m/s 739 mmHg 89%
03:00 +13°C° 0 mm 2 m/s 739 mmHg 89%
04:00 +13°C° 0 mm 2 m/s 739 mmHg 89%
05:00 +13°C° 0 mm 2 m/s 739 mmHg 89%
06:00 +14°C° 0 mm 3 m/s 739 mmHg 83%
07:00 +17°C° 0 mm 4 m/s 739 mmHg 76%
08:00 +19°C° 0 mm 4 m/s 739 mmHg 70%
09:00 +21°C° 0 mm 5 m/s 738 mmHg 68%
10:00 +22°C° 0 mm 6 m/s 738 mmHg 66%
11:00 +23°C° 0 mm 6 m/s 738 mmHg 63%
12:00 +24°C° 0 mm 6 m/s 737 mmHg 62%
13:00 +26°C° 0 mm 6 m/s 737 mmHg 61%
14:00 +27°C° 0 mm 7 m/s 736 mmHg 60%
15:00 +27°C° 0.1 mm 6 m/s 736 mmHg 62%
16:00 +26°C° 0.1 mm 6 m/s 736 mmHg 63%
17:00 +26°C° 0.1 mm 6 m/s 735 mmHg 64%
18:00 +23°C° 0 mm 6 m/s 735 mmHg 69%
19:00 +22°C° 0 mm 5 m/s 735 mmHg 73%
20:00 +20°C° 0 mm 5 m/s 735 mmHg 77%
21:00 +19°C° 0 mm 5 m/s 735 mmHg 78%
22:00 +19°C° 0 mm 5 m/s 735 mmHg 78%
23:00 +17°C° 0 mm 5 m/s 735 mmHg 79%

Amanhã, 18 Maio, Terça-feira

Tempo Temperatura Precipitação Vento Pressão Humidade
00:00 +17°C° 0 mm 5 m/s 735 mmHg 80%
01:00 +16°C° 0 mm 5 m/s 735 mmHg 82%
02:00 +17°C° 0 mm 4 m/s 734 mmHg 84%
03:00 +17°C° 0.1 mm 4 m/s 734 mmHg 85%
04:00 +17°C° 0.1 mm 4 m/s 734 mmHg 86%
05:00 +15°C° 0.1 mm 4 m/s 734 mmHg 88%
06:00 +18°C° 0 mm 4 m/s 734 mmHg 83%
07:00 +19°C° 0 mm 5 m/s 734 mmHg 78%
08:00 +21°C° 0 mm 5 m/s 735 mmHg 74%
09:00 +22°C° 0 mm 5 m/s 734 mmHg 68%
10:00 +23°C° 0 mm 6 m/s 734 mmHg 63%
11:00 +26°C° 0 mm 6 m/s 734 mmHg 58%
12:00 +26°C° 0 mm 6 m/s 734 mmHg 56%
13:00 +27°C° 0 mm 6 m/s 734 mmHg 54%
14:00 +27°C° 0 mm 6 m/s 734 mmHg 52%
15:00 +26°C° 0 mm 6 m/s 734 mmHg 55%
16:00 +25°C° 0 mm 5 m/s 734 mmHg 58%
17:00 +25°C° 0 mm 5 m/s 733 mmHg 61%
18:00 +22°C° 0.1 mm 5 m/s 733 mmHg 68%
19:00 +20°C° 0.1 mm 4 m/s 733 mmHg 75%
20:00 +19°C° 0.1 mm 3 m/s 733 mmHg 82%
21:00 +18°C° 0.2 mm 4 m/s 733 mmHg 85%
22:00 +17°C° 0.2 mm 4 m/s 734 mmHg 88%
23:00 +17°C° 0.2 mm 4 m/s 734 mmHg 91%

Depois de amanhã, 19 Maio, Quarta-feira

Tempo Temperatura Precipitação Vento Pressão Humidade
00:00 +15°C° 0.1 mm 5 m/s 734 mmHg 91%
01:00 +15°C° 0.1 mm 5 m/s 734 mmHg 91%
02:00 +15°C° 0.1 mm 5 m/s 734 mmHg 91%
03:00 +15°C° 0 mm 5 m/s 734 mmHg 92%
04:00 +14°C° 0 mm 5 m/s 734 mmHg 94%
05:00 +14°C° 0 mm 4 m/s 734 mmHg 95%
06:00 +15°C° 0 mm 4 m/s 734 mmHg 90%
07:00 +16°C° 0 mm 5 m/s 735 mmHg 85%
08:00 +17°C° 0 mm 5 m/s 735 mmHg 79%
09:00 +19°C° 0.2 mm 5 m/s 735 mmHg 76%
10:00 +20°C° 0.2 mm 5 m/s 735 mmHg 72%
11:00 +20°C° 0.2 mm 5 m/s 735 mmHg 69%
12:00 +21°C° 0.2 mm 5 m/s 735 mmHg 68%
13:00 +21°C° 0.2 mm 5 m/s 735 mmHg 66%
14:00 +21°C° 0.2 mm 5 m/s 735 mmHg 65%
15:00 +21°C° 0.1 mm 4 m/s 735 mmHg 67%
16:00 +21°C° 0.1 mm 4 m/s 735 mmHg 70%
17:00 +21°C° 0.1 mm 3 m/s 735 mmHg 72%
18:00 +19°C° 0.1 mm 3 m/s 735 mmHg 78%
19:00 +18°C° 0.1 mm 2 m/s 735 mmHg 84%
20:00 +16°C° 0.1 mm 2 m/s 735 mmHg 90%
21:00 +16°C° 0 mm 2 m/s 735 mmHg 91%
22:00 +15°C° 0 mm 2 m/s 735 mmHg 92%
23:00 +15°C° 0 mm 2 m/s 735 mmHg 94%

20 Maio, Quinta-feira

Tempo Temperatura Precipitação Vento Pressão Humidade
00:00 +14°C° 0 mm 2 m/s 734 mmHg 94%
01:00 +14°C° 0 mm 2 m/s 734 mmHg 94%
02:00 +14°C° 0 mm 2 m/s 734 mmHg 95%
03:00 +14°C° 0 mm 2 m/s 734 mmHg 94%
04:00 +14°C° 0 mm 2 m/s 733 mmHg 94%
05:00 +15°C° 0 mm 2 m/s 733 mmHg 94%
06:00 +16°C° 0 mm 3 m/s 733 mmHg 89%
07:00 +18°C° 0 mm 4 m/s 733 mmHg 83%
08:00 +20°C° 0 mm 5 m/s 733 mmHg 78%
09:00 +19°C° 0.3 mm 5 m/s 733 mmHg 79%
10:00 +19°C° 0.3 mm 5 m/s 732 mmHg 80%
11:00 +19°C° 0.3 mm 6 m/s 732 mmHg 80%
12:00 +19°C° 0.4 mm 5 m/s 732 mmHg 78%
13:00 +19°C° 0.4 mm 5 m/s 732 mmHg 76%
14:00 +19°C° 0.4 mm 5 m/s 731 mmHg 74%
15:00 +19°C° 0.5 mm 5 m/s 731 mmHg 77%
16:00 +18°C° 0.5 mm 4 m/s 731 mmHg 79%
17:00 +17°C° 0.5 mm 4 m/s 731 mmHg 81%
18:00 +15°C° 0.4 mm 4 m/s 731 mmHg 86%
19:00 +14°C° 0.4 mm 3 m/s 731 mmHg 90%
20:00 +13°C° 0.4 mm 3 m/s 731 mmHg 94%
21:00 +12°C° 0 mm 3 m/s 731 mmHg 95%
22:00 +12°C° 0 mm 3 m/s 731 mmHg 96%
23:00 +11°C° 0 mm 3 m/s 731 mmHg 97%

21 Maio, Sexta-feira

Tempo Temperatura Precipitação Vento Pressão Humidade
00:00 +11°C° 0.3 mm 3 m/s 730 mmHg 96%
01:00 +11°C° 0.3 mm 4 m/s 730 mmHg 95%
02:00 +10°C° 0.3 mm 4 m/s 730 mmHg 95%
03:00 +10°C° 0.2 mm 4 m/s 730 mmHg 95%
04:00 +8°C° 0.2 mm 4 m/s 730 mmHg 95%
05:00 +9°C° 0.2 mm 3 m/s 730 mmHg 95%
06:00 +8°C° 0.4 mm 4 m/s 730 mmHg 95%
07:00 +8°C° 0.4 mm 4 m/s 730 mmHg 95%
08:00 +8°C° 0.4 mm 4 m/s 730 mmHg 95%
09:00 +8°C° 0.4 mm 4 m/s 730 mmHg 95%
10:00 +8°C° 0.4 mm 4 m/s 730 mmHg 95%
11:00 +9°C° 0.4 mm 5 m/s 731 mmHg 96%
12:00 +9°C° 0.4 mm 5 m/s 731 mmHg 95%
13:00 +9°C° 0.4 mm 5 m/s 732 mmHg 95%
14:00 +9°C° 0.4 mm 6 m/s 732 mmHg 95%
15:00 +8°C° 0.4 mm 6 m/s 733 mmHg 94%
16:00 +8°C° 0.4 mm 6 m/s 734 mmHg 94%
17:00 +8°C° 0.4 mm 6 m/s 734 mmHg 93%
18:00 +8°C° 0 mm 7 m/s 735 mmHg 92%
19:00 +8°C° 0 mm 7 m/s 736 mmHg 92%
20:00 +8°C° 0 mm 7 m/s 737 mmHg 91%
21:00 +7°C° 0 mm 6 m/s 737 mmHg 92%
22:00 +7°C° 0 mm 5 m/s 738 mmHg 92%
23:00 +7°C° 0 mm 5 m/s 738 mmHg 93%

22 Maio, Sábado

Tempo Temperatura Precipitação Vento Pressão Humidade
00:00 +7°C° 0 mm 4 m/s 738 mmHg 93%
01:00 +6°C° 0 mm 4 m/s 739 mmHg 93%
02:00 +6°C° 0 mm 4 m/s 739 mmHg 94%
03:00 +6°C° 0 mm 4 m/s 739 mmHg 94%
04:00 +7°C° 0 mm 3 m/s 740 mmHg 94%
05:00 +7°C° 0 mm 3 m/s 740 mmHg 94%
06:00 +8°C° 0 mm 3 m/s 740 mmHg 88%
07:00 +10°C° 0 mm 4 m/s 740 mmHg 81%
08:00 +11°C° 0 mm 4 m/s 741 mmHg 75%
09:00 +12°C° 0 mm 5 m/s 741 mmHg 68%
10:00 +12°C° 0 mm 5 m/s 741 mmHg 61%
11:00 +13°C° 0 mm 5 m/s 741 mmHg 54%
12:00 +13°C° 0 mm 5 m/s 741 mmHg 54%
13:00 +13°C° 0 mm 5 m/s 741 mmHg 54%
14:00 +13°C° 0 mm 4 m/s 742 mmHg 54%
15:00 +13°C° 0 mm 4 m/s 742 mmHg 56%
16:00 +13°C° 0 mm 4 m/s 742 mmHg 58%
17:00 +13°C° 0 mm 4 m/s 742 mmHg 59%
18:00 +12°C° 0 mm 3 m/s 742 mmHg 65%
19:00 +10°C° 0 mm 3 m/s 742 mmHg 71%
20:00 +9°C° 0 mm 2 m/s 742 mmHg 77%
21:00 +8°C° 0 mm 2 m/s 743 mmHg 79%
22:00 +8°C° 0 mm 2 m/s 743 mmHg 81%
23:00 +7°C° 0 mm 2 m/s 743 mmHg 83%
Mostrar mais

Necessitamos do seu Consentimento

A Meteoprog e os seus Fornecedores de Serviços podem armazenar e aceder a dados pessoais como cookies, identificadores do dispositivo ou outras tecnologias semelhantes existentes no seu dispositivo e processar estes dados para personalizar conteúdos e anúncios, assim como funcionalidades nas redes sociais e análise de tráfego.

  • Armazenar e/ou aceder a informações no seu dispositivo

    Os cookies, identificadores do dispositivo ou outras informações podem ser armazenados ou acedidos no seu dispositivo, para os fins acima indicados.

  • Anúncios e conteúdos personalizados, medição de anúncios e conteúdos, dados sobre o público-alvo e desenvolvimento de produtos

    Os anúncios e os conteúdos podem ser personalizados com base num perfil. Podem ser adicionados dados adicionais para uma maior personalização dos anúncios e dos conteúdos. A eficácia dos anúncios e dos conteúdos pode ser medida. Podem ser obtidas informações sobre o público que visualizou os anúncios e os conteúdos. Estes dados podem ser usados para desenvolver ou melhorar sistemas, softwares ou a experiência do utilizador.

Ao clicar em "Eu concordo”, permitirá o uso de cookies, identificadores do dispositivo e web beacons mencionados ou outras tecnologias semelhantes. As configurações do navegador do seu dispositivo podem ser alteradas.

Para certos fins, podem ser invocados interesses legítimos ao invés de consentimento. Pode ler mais informação sobre este assunto na nossa Política de Privacidade e Cookies.